When you browse on this site, cookies collect data to enhance your experience and personalize the content and advertising you see.
Visit our Privacy Policy to learn more. By continuing to use the site, you agree to this use of cookies and data.
  • In United Kingdom
  • List of Countries
  • For 7 days
  • Water Temperature
  • Weather Map
  • Weather Widgets
  • user-avatar
    Login

    Hourly Weather Giumri

    Today, 22 November, Friday

    Time Temperature Precipitation Wind Pressure Humidity
    00:00 -2°C° 0 mm 2 mps 634 mmHg 80%
    01:00 -3°C° 0 mm 2 mps 634 mmHg 81%
    02:00 -3°C° 0 mm 2 mps 634 mmHg 82%
    03:00 -1°C° 0 mm 1 mps 633 mmHg 82%
    04:00 -2°C° 0 mm 1 mps 634 mmHg 82%
    05:00 -2°C° 0 mm 1 mps 634 mmHg 83%
    06:00 -2°C° 0 mm 1 mps 634 mmHg 83%
    07:00 -3°C° 0 mm 2 mps 635 mmHg 78%
    08:00 -2°C° 0 mm 2 mps 635 mmHg 72%
    09:00 -1°C° 0 mm 2 mps 635 mmHg 67%
    10:00 +1°C° 0 mm 2 mps 636 mmHg 62%
    11:00 +2°C° 0 mm 2 mps 636 mmHg 58%
    12:00 +3°C° 0 mm 2 mps 636 mmHg 54%
    13:00 +3°C° 0 mm 2 mps 636 mmHg 54%
    14:00 +3°C° 0 mm 2 mps 635 mmHg 54%
    15:00 +3°C° 0 mm 2 mps 635 mmHg 54%
    16:00 +2°C° 0 mm 2 mps 635 mmHg 61%
    17:00 -1°C° 0 mm 2 mps 635 mmHg 69%
    18:00 -2°C° 0 mm 2 mps 635 mmHg 76%
    19:00 -2°C° 0 mm 2 mps 635 mmHg 77%
    20:00 -3°C° 0 mm 2 mps 635 mmHg 78%
    21:00 -3°C° 0 mm 2 mps 636 mmHg 79%
    22:00 -4°C° 0 mm 2 mps 636 mmHg 79%
    23:00 -2°C° 0 mm 1 mps 636 mmHg 80%

    Tomorrow, 23 November, Saturday

    Time Temperature Precipitation Wind Pressure Humidity
    00:00 -2°C° 0 mm 1 mps 636 mmHg 81%
    01:00 -2°C° 0 mm 1 mps 635 mmHg 81%
    02:00 -3°C° 0 mm 1 mps 635 mmHg 82%
    03:00 -3°C° 0 mm 1 mps 635 mmHg 82%
    04:00 -3°C° 0 mm 1 mps 635 mmHg 83%
    05:00 -3°C° 0 mm 1 mps 635 mmHg 83%
    06:00 -3°C° 0 mm 1 mps 635 mmHg 84%
    07:00 -2°C° 0 mm 1 mps 636 mmHg 78%
    08:00 -1°C° 0 mm 1 mps 636 mmHg 73%
    09:00 0°C° 0 mm 1 mps 637 mmHg 68%
    10:00 +1°C° 0 mm 1 mps 637 mmHg 63%
    11:00 +2°C° 0 mm 1 mps 637 mmHg 58%
    12:00 +4°C° 0 mm 1 mps 637 mmHg 54%
    13:00 +4°C° 0 mm 1 mps 637 mmHg 54%
    14:00 +4°C° 0 mm 1 mps 636 mmHg 54%
    15:00 +4°C° 0 mm 1 mps 636 mmHg 54%
    16:00 +3°C° 0 mm 1 mps 636 mmHg 60%
    17:00 +2°C° 0 mm 1 mps 636 mmHg 67%
    18:00 0°C° 0 mm 1 mps 635 mmHg 73%
    19:00 0°C° 0 mm 1 mps 636 mmHg 74%
    20:00 0°C° 0 mm 1 mps 636 mmHg 75%
    21:00 -2°C° 0 mm 0 mps 636 mmHg 76%
    22:00 -2°C° 0 mm 0 mps 636 mmHg 77%
    23:00 -2°C° 0 mm 0 mps 636 mmHg 78%

    Day after tomorrow, 24 November, Sunday

    Time Temperature Precipitation Wind Pressure Humidity
    00:00 -2°C° 0 mm 0 mps 636 mmHg 79%
    01:00 -3°C° 0 mm 0 mps 636 mmHg 79%
    02:00 -3°C° 0 mm 0 mps 636 mmHg 80%
    03:00 -3°C° 0 mm 0 mps 636 mmHg 81%
    04:00 -3°C° 0 mm 0 mps 635 mmHg 82%
    05:00 -3°C° 0 mm 0 mps 635 mmHg 82%
    06:00 -3°C° 0 mm 0 mps 635 mmHg 83%
    07:00 -2°C° 0 mm 0 mps 636 mmHg 78%
    08:00 0°C° 0 mm 1 mps 636 mmHg 73%
    09:00 +1°C° 0 mm 1 mps 637 mmHg 68%
    10:00 +2°C° 0 mm 1 mps 636 mmHg 64%
    11:00 +3°C° 0 mm 1 mps 636 mmHg 59%
    12:00 +4°C° 0 mm 1 mps 636 mmHg 54%
    13:00 +5°C° 0 mm 1 mps 636 mmHg 54%
    14:00 +5°C° 0 mm 1 mps 636 mmHg 53%
    15:00 +5°C° 0 mm 1 mps 635 mmHg 52%
    16:00 +4°C° 0 mm 1 mps 635 mmHg 58%
    17:00 +3°C° 0 mm 1 mps 635 mmHg 64%
    18:00 0°C° 0 mm 0 mps 635 mmHg 69%
    19:00 0°C° 0 mm 0 mps 635 mmHg 71%
    20:00 0°C° 0 mm 0 mps 635 mmHg 72%
    21:00 -1°C° 0 mm 0 mps 635 mmHg 73%
    22:00 -1°C° 0 mm 0 mps 635 mmHg 74%
    23:00 -1°C° 0 mm 0 mps 635 mmHg 75%

    25 November, Monday

    Time Temperature Precipitation Wind Pressure Humidity
    00:00 -1°C° 0 mm 0 mps 635 mmHg 75%
    01:00 -1°C° 0 mm 0 mps 634 mmHg 76%
    02:00 -1°C° 0 mm 0 mps 634 mmHg 76%
    03:00 -1°C° 0 mm 0 mps 634 mmHg 76%
    04:00 -1°C° 0 mm 0 mps 634 mmHg 76%
    05:00 -1°C° 0 mm 0 mps 634 mmHg 76%
    06:00 -1°C° 0 mm 0 mps 634 mmHg 76%
    07:00 0°C° 0 mm 0 mps 634 mmHg 72%
    08:00 0°C° 0 mm 0 mps 635 mmHg 68%
    09:00 +1°C° 0 mm 0 mps 635 mmHg 64%
    10:00 +3°C° 0 mm 1 mps 635 mmHg 61%
    11:00 +4°C° 0 mm 1 mps 635 mmHg 57%
    12:00 +5°C° 0 mm 1 mps 635 mmHg 53%
    13:00 +6°C° 0 mm 1 mps 634 mmHg 53%
    14:00 +5°C° 0 mm 2 mps 634 mmHg 52%
    15:00 +5°C° 0 mm 2 mps 634 mmHg 51%
    16:00 +5°C° 0 mm 1 mps 634 mmHg 56%
    17:00 +3°C° 0 mm 1 mps 633 mmHg 61%
    18:00 +2°C° 0 mm 1 mps 633 mmHg 67%
    19:00 +2°C° 0 mm 1 mps 633 mmHg 66%
    20:00 +1°C° 0 mm 1 mps 633 mmHg 66%
    21:00 +1°C° 0 mm 1 mps 633 mmHg 66%
    22:00 +1°C° 0 mm 1 mps 633 mmHg 67%
    23:00 +1°C° 0 mm 1 mps 633 mmHg 68%

    26 November, Tuesday

    Time Temperature Precipitation Wind Pressure Humidity
    00:00 0°C° 0 mm 1 mps 633 mmHg 69%
    01:00 0°C° 0 mm 1 mps 633 mmHg 70%
    02:00 0°C° 0 mm 1 mps 633 mmHg 71%
    03:00 0°C° 0 mm 1 mps 632 mmHg 72%
    04:00 -1°C° 0 mm 1 mps 632 mmHg 73%
    05:00 -1°C° 0 mm 1 mps 632 mmHg 74%
    06:00 -1°C° 0 mm 1 mps 632 mmHg 74%
    07:00 0°C° 0 mm 1 mps 632 mmHg 69%
    08:00 +1°C° 0 mm 1 mps 633 mmHg 64%
    09:00 +2°C° 0 mm 1 mps 633 mmHg 59%
    10:00 +2°C° 0 mm 2 mps 633 mmHg 55%
    11:00 +3°C° 0 mm 2 mps 633 mmHg 50%
    12:00 +4°C° 0 mm 2 mps 633 mmHg 46%
    13:00 +4°C° 0 mm 3 mps 633 mmHg 47%
    14:00 +4°C° 0 mm 3 mps 633 mmHg 49%
    15:00 +4°C° 0 mm 3 mps 633 mmHg 51%
    16:00 +3°C° 0 mm 3 mps 633 mmHg 59%
    17:00 +3°C° 0 mm 2 mps 633 mmHg 67%
    18:00 +2°C° 0 mm 2 mps 633 mmHg 75%
    19:00 +2°C° 0 mm 2 mps 633 mmHg 75%
    20:00 +3°C° 0 mm 1 mps 633 mmHg 75%
    21:00 +3°C° 0 mm 1 mps 633 mmHg 75%
    22:00 +3°C° 0 mm 1 mps 632 mmHg 75%
    23:00 +3°C° 0 mm 1 mps 632 mmHg 74%

    27 November, Wednesday

    Time Temperature Precipitation Wind Pressure Humidity
    00:00 +2°C° 0 mm 1 mps 632 mmHg 74%
    01:00 +2°C° 0 mm 1 mps 632 mmHg 76%
    02:00 +2°C° 0 mm 1 mps 632 mmHg 78%
    03:00 +2°C° 0 mm 1 mps 632 mmHg 80%
    04:00 +2°C° 0.4 mm 1 mps 632 mmHg 85%
    05:00 +2°C° 0.4 mm 1 mps 632 mmHg 91%
    06:00 +2°C° 0.4 mm 1 mps 632 mmHg 96%
    07:00 +1°C° 0.2 mm 2 mps 632 mmHg 95%
    08:00 +1°C° 0.2 mm 2 mps 632 mmHg 94%
    09:00 +2°C° 0.2 mm 2 mps 632 mmHg 93%
    10:00 +2°C° 0.1 mm 2 mps 632 mmHg 91%
    11:00 +3°C° 0.1 mm 2 mps 632 mmHg 90%
    12:00 +3°C° 0.1 mm 2 mps 631 mmHg 89%
    13:00 +3°C° 0 mm 2 mps 631 mmHg 87%
    14:00 +4°C° 0 mm 2 mps 631 mmHg 86%
    15:00 +4°C° 0 mm 2 mps 631 mmHg 85%
    16:00 +3°C° 0 mm 2 mps 631 mmHg 88%
    17:00 +4°C° 0 mm 1 mps 631 mmHg 90%
    18:00 +3°C° 0 mm 1 mps 632 mmHg 93%
    19:00 +3°C° 0 mm 1 mps 632 mmHg 92%
    20:00 +3°C° 0 mm 1 mps 632 mmHg 92%
    21:00 +3°C° 0 mm 1 mps 632 mmHg 91%
    22:00 +3°C° 0 mm 1 mps 632 mmHg 92%
    23:00 +1°C° 0 mm 0 mps 632 mmHg 93%
    Show more